Regional Weather Roundup
Issued by NWS Green Bay, WI

Home | Current Version | Previous Version | Graphics & Text | Print | Product List | Glossary Off
Versions: 1 2 3 4 5 6 7 8 9 10 11 12 13 14 15 16 17 18 19 20 21 22 23 24 25 26 27 28 29 30 31 32 33 34 35 36 37 38 39 40 41 42 43 44 45 46 47 48 49 50

000
ASUS43 KGRB 010100
RWRGRB

NORTH-CENTRAL AND NORTHEAST WISCONSIN REGIONAL WEATHER ROUNDUP
NATIONAL WEATHER SERVICE GREEN BAY WI
800 PM CDT SAT APR 30 2016

WIZ005-009-010>012-018-019-010200-
NORTH CENTRAL WISCONSIN

CITY           SKY/WX    TMP DP  RH WIND       PRES   REMARKS
IRONWOOD         N/A     43  34  70 NE9       30.17R
MANITOWISH WTR NOT AVBL
ARBOR VITAE    NOT AVBL
EAGLE RIVER    NOT AVBL
LAND O LAKES   NOT AVBL
RHINELANDER    CLOUDY    51  31  46 E12       30.12R
PHILLIPS       CLOUDY    49  34  54 NE14G20   30.11R
ANTIGO         NOT AVBL
TOMAHAWK       NOT AVBL
MERRILL        NOT AVBL
$$

WIZ013-073-010200-
NORTHEAST WISCONSIN

CITY           SKY/WX    TMP DP  RH WIND       PRES   REMARKS
IRON MOUNTAIN  CLOUDY    48  29  47 NE9       30.14R
MARINETTE      CLOUDY    52  30  43 NE12      30.12R
$$

WIZ017-030-035>037-045-010200-
CENTRAL WISCONSIN

CITY           SKY/WX    TMP DP  RH WIND       PRES   REMARKS
MEDFORD        NOT AVBL
WAUSAU         CLOUDY    53  33  46 E9        30.06F
MOSINEE        NOT AVBL
MARSHFIELD     CLOUDY    50  31  48 E9        30.05F
WISC RAPIDS    LGT RAIN  48  32  53 E17G25    30.07F
STEVENS POINT  NOT AVBL
WAUPACA        LGT RAIN  50  33  52 NE8       30.09S
SHAWANO        CLOUDY    53  36  52 E7        30.10S
CLINTONVILLE   NOT AVBL
WAUTOMA        LGT RAIN  45  40  82 NE9       30.06
$$

WIZ038-039-048-051-010200-
FOX VALLEY

CITY           SKY/WX    TMP DP  RH WIND       PRES   REMARKS
NWS GREEN BAY  CLOUDY    49  32  52 NE18      30.09R
APPLETON       LGT RAIN  48  34  57 NE7       30.06S
OSHKOSH        LGT RAIN  48  37  65 NE10      30.07R
FOND DU LAC    LGT RAIN  46  37  71 NE10      30.06R
$$

WIZ022-050-052-010200-
EAST CENTRAL WISCONSIN

CITY           SKY/WX    TMP DP  RH WIND       PRES   REMARKS
EPHRAIM        NOT AVBL
STURGEON BAY   CLOUDY    48  28  46 N9        30.13R
MANITOWOC      NOT AVBL
SHEBOYGAN      LGT RAIN  43  36  76 NE12      30.06R
$$

LMZ563-521-522-541>543-010200-
LAKESHORE

STATION/POSITION TIME  TEMP    WIND        PRES    VSBY  WAVE
                       AIR SEA DIR/SP/G                  HT/PER
                 (UTC) (F)     (DEG/KT/KT) (MB)    (MI)  (FT/S)
SHEBOYGAN LKSHOR 0000   42      10/ 13/ 14 1018.4R
KEWAUNEE LKSHORE 0000   44                 1017.6
NORTHPORT PIER   0000   46      10/ 10/ 14 1019.0R
N MID LAKE BUOY  2350   43 39   40/ 12/ 14 1018.8R         1
CHAMBERS ISLAND  0000   45     360/ 17/ 20 1019.3R
MENOMINEE LKSHOR 0000   47                 1018.1
$$



USA.gov is the U.S. government's official web portal to all federal, state and local government web resources and services.